Time,TemperatureF,DewpointF,PressureIn,WindDirection,WindDirectionDegrees,WindSpeedMPH,WindSpeedGustMPH,Humidity,HourlyPrecipIn,Conditions,Clouds,dailyrainin,SoftwareType,DateUTC
2013-11-30 00:02:00,26.8,13.6,21.72,SW,225,5.0,8.0,57,0.00,,,0.00,meteohub,2013-11-30 06:02:00,
2013-11-30 00:07:00,26.8,14.0,21.72,North,0,5.0,8.0,58,0.00,,,0.00,meteohub,2013-11-30 06:07:00,
2013-11-30 00:12:00,26.6,13.8,21.73,NW,315,5.0,8.0,58,0.00,,,0.00,meteohub,2013-11-30 06:12:00,
2013-11-30 00:17:00,26.6,13.8,21.73,SW,225,6.0,6.0,58,0.00,,,0.00,meteohub,2013-11-30 06:17:00,
2013-11-30 00:23:00,26.4,14.0,21.73,West,270,6.0,6.0,59,0.00,,,0.00,meteohub,2013-11-30 06:23:00,
2013-11-30 00:28:00,26.6,13.8,21.73,SW,225,4.0,7.0,58,0.00,,,0.00,meteohub,2013-11-30 06:28:00,
2013-11-30 00:33:00,26.6,14.2,21.73,West,270,4.0,7.0,59,0.00,,,0.00,meteohub,2013-11-30 06:33:00,
2013-11-30 00:38:00,26.6,14.2,21.73,West,270,6.0,7.0,59,0.00,,,0.00,meteohub,2013-11-30 06:38:00,
2013-11-30 00:43:00,26.8,14.4,21.73,West,270,4.0,6.0,59,0.00,,,0.00,meteohub,2013-11-30 06:43:00,
2013-11-30 00:48:00,26.8,14.4,21.74,West,270,4.0,6.0,59,0.00,,,0.00,meteohub,2013-11-30 06:48:00,
2013-11-30 00:53:00,26.6,14.2,21.74,West,270,4.0,6.0,59,0.00,,,0.00,meteohub,2013-11-30 06:53:00,
2013-11-30 00:58:00,26.8,14.4,21.74,West,270,4.0,7.0,59,0.00,,,0.00,meteohub,2013-11-30 06:58:00,
2013-11-30 01:03:00,26.6,14.2,21.75,SW,225,6.0,7.0,59,0.00,,,0.00,meteohub,2013-11-30 07:03:00,
2013-11-30 01:08:00,26.8,14.4,21.74,West,270,4.0,7.0,59,0.00,,,0.00,meteohub,2013-11-30 07:08:00,
2013-11-30 01:13:00,26.8,14.4,21.74,South,180,2.0,7.0,59,0.00,,,0.00,meteohub,2013-11-30 07:13:00,
2013-11-30 01:18:00,27.0,14.9,21.75,West,270,3.0,7.0,60,0.00,,,0.00,meteohub,2013-11-30 07:18:00,
2013-11-30 01:23:00,27.0,14.9,21.74,West,270,0.0,5.0,60,0.00,,,0.00,meteohub,2013-11-30 07:23:00,
2013-11-30 01:28:00,26.8,14.4,21.74,SW,225,1.0,5.0,59,0.00,,,0.00,meteohub,2013-11-30 07:28:00,
2013-11-30 01:33:00,26.8,14.7,21.74,West,270,3.0,4.0,60,0.00,,,0.00,meteohub,2013-11-30 07:33:00,
2013-11-30 01:38:00,27.0,14.9,21.75,West,270,2.0,4.0,60,0.00,,,0.00,meteohub,2013-11-30 07:38:00,
2013-11-30 01:43:00,27.0,14.9,21.75,SSW,203,4.0,4.0,60,0.00,,,0.00,meteohub,2013-11-30 07:43:00,
2013-11-30 01:48:00,27.1,15.1,21.75,SW,225,3.0,4.0,60,0.00,,,0.00,meteohub,2013-11-30 07:48:00,
2013-11-30 01:53:00,27.1,15.1,21.75,West,270,3.0,7.0,60,0.00,,,0.00,meteohub,2013-11-30 07:53:00,
2013-11-30 01:59:00,27.3,15.3,21.75,SW,225,4.0,7.0,60,0.00,,,0.00,meteohub,2013-11-30 07:59:00,
2013-11-30 02:04:00,27.3,15.3,21.75,SW,225,4.0,4.0,60,0.00,,,0.00,meteohub,2013-11-30 08:04:00,
2013-11-30 02:09:00,27.5,15.4,21.75,West,270,3.0,4.0,60,0.00,,,0.00,meteohub,2013-11-30 08:09:00,
2013-11-30 02:14:00,27.5,15.4,21.76,SW,225,4.0,4.0,60,0.00,,,0.00,meteohub,2013-11-30 08:14:00,
2013-11-30 02:19:00,27.5,15.4,21.76,West,270,4.0,5.0,60,0.00,,,0.00,meteohub,2013-11-30 08:19:00,
2013-11-30 02:24:00,27.5,15.4,21.77,West,270,5.0,6.0,60,0.00,,,0.00,meteohub,2013-11-30 08:24:00,
2013-11-30 02:29:00,27.7,15.6,21.77,SW,225,3.0,6.0,60,0.00,,,0.00,meteohub,2013-11-30 08:29:00,
2013-11-30 02:34:00,27.7,16.0,21.77,West,270,4.0,6.0,61,0.00,,,0.00,meteohub,2013-11-30 08:34:00,
2013-11-30 02:39:00,27.7,16.0,21.78,West,270,4.0,6.0,61,0.00,,,0.00,meteohub,2013-11-30 08:39:00,
2013-11-30 02:44:00,27.9,16.2,21.78,SW,225,5.0,6.0,61,0.00,,,0.00,meteohub,2013-11-30 08:44:00,
2013-11-30 02:49:00,27.9,16.2,21.78,West,270,4.0,6.0,61,0.00,,,0.00,meteohub,2013-11-30 08:49:00,
2013-11-30 02:54:00,28.0,16.3,21.78,SW,225,4.0,5.0,61,0.00,,,0.00,meteohub,2013-11-30 08:54:00,
2013-11-30 02:59:00,28.0,16.3,21.78,SW,225,4.0,5.0,61,0.00,,,0.00,meteohub,2013-11-30 08:59:00,
2013-11-30 03:04:00,28.2,16.5,21.78,South,180,1.0,7.0,61,0.00,,,0.00,meteohub,2013-11-30 09:04:00,
2013-11-30 03:09:00,28.2,16.5,21.78,SW,225,1.0,7.0,61,0.00,,,0.00,meteohub,2013-11-30 09:09:00,
2013-11-30 03:14:00,28.2,16.5,21.79,West,270,3.0,7.0,61,0.00,,,0.00,meteohub,2013-11-30 09:14:00,
2013-11-30 03:19:00,28.4,18.1,21.80,SW,225,2.0,4.0,65,0.00,,,0.00,meteohub,2013-11-30 09:19:00,
2013-11-30 03:24:00,28.4,18.1,21.80,SW,225,4.0,4.0,65,0.00,,,0.00,meteohub,2013-11-30 09:24:00,
2013-11-30 03:29:00,28.4,18.1,21.80,SW,225,2.0,4.0,65,0.00,,,0.00,meteohub,2013-11-30 09:29:00,
2013-11-30 03:34:00,28.4,18.1,21.80,SW,225,3.0,5.0,65,0.00,,,0.00,meteohub,2013-11-30 09:34:00,
2013-11-30 03:39:00,28.6,18.3,21.81,SW,225,4.0,5.0,65,0.00,,,0.00,meteohub,2013-11-30 09:39:00,
2013-11-30 03:44:00,28.6,18.3,21.81,West,270,4.0,5.0,65,0.00,,,0.00,meteohub,2013-11-30 09:44:00,
2013-11-30 03:49:00,28.6,18.3,21.81,West,270,4.0,5.0,65,0.00,,,0.00,meteohub,2013-11-30 09:49:00,
2013-11-30 03:54:00,28.6,18.3,21.81,West,270,5.0,5.0,65,0.00,,,0.00,meteohub,2013-11-30 09:54:00,
2013-11-30 03:59:00,28.8,18.5,21.82,WNW,293,4.0,5.0,65,0.00,,,0.00,meteohub,2013-11-30 09:59:00,
2013-11-30 04:04:00,28.8,18.5,21.82,WNW,293,4.0,5.0,65,0.00,,,0.00,meteohub,2013-11-30 10:04:00,
2013-11-30 04:09:00,28.8,18.5,21.82,West,270,4.0,5.0,65,0.00,,,0.00,meteohub,2013-11-30 10:09:00,
2013-11-30 04:14:00,28.8,18.5,21.82,West,270,4.0,5.0,65,0.00,,,0.00,meteohub,2013-11-30 10:14:00,
2013-11-30 04:19:00,28.8,18.5,21.82,West,270,4.0,4.0,65,0.00,,,0.00,meteohub,2013-11-30 10:19:00,
2013-11-30 04:24:00,28.9,18.7,21.83,West,270,4.0,5.0,65,0.00,,,0.00,meteohub,2013-11-30 10:24:00,
2013-11-30 04:29:00,28.9,18.7,21.83,SW,225,4.0,5.0,65,0.00,,,0.00,meteohub,2013-11-30 10:29:00,
2013-11-30 04:34:00,28.9,18.7,21.83,WSW,248,4.0,5.0,65,0.00,,,0.00,meteohub,2013-11-30 10:34:00,
2013-11-30 04:39:00,28.9,18.7,21.83,SW,225,3.0,5.0,65,0.00,,,0.00,meteohub,2013-11-30 10:39:00,
2013-11-30 04:44:00,28.9,18.7,21.83,SW,225,4.0,4.0,65,0.00,,,0.00,meteohub,2013-11-30 10:44:00,
2013-11-30 04:49:00,28.9,18.7,21.83,SW,225,3.0,4.0,65,0.00,,,0.00,meteohub,2013-11-30 10:49:00,
2013-11-30 04:54:00,28.9,19.0,21.84,West,270,3.0,4.0,66,0.00,,,0.00,meteohub,2013-11-30 10:54:00,
2013-11-30 04:59:00,28.9,19.0,21.84,SW,225,5.0,5.0,66,0.00,,,0.00,meteohub,2013-11-30 10:59:00,
2013-11-30 05:04:00,28.9,19.0,21.84,SW,225,4.0,4.0,66,0.00,,,0.00,meteohub,2013-11-30 11:04:00,
2013-11-30 05:09:00,28.9,19.0,21.84,SW,225,2.0,7.0,66,0.00,,,0.00,meteohub,2013-11-30 11:09:00,
2013-11-30 05:14:00,28.9,19.0,21.84,South,180,4.0,7.0,66,0.00,,,0.00,meteohub,2013-11-30 11:14:00,
2013-11-30 05:19:00,29.1,19.2,21.85,West,270,4.0,7.0,66,0.00,,,0.00,meteohub,2013-11-30 11:19:00,
2013-11-30 05:24:00,29.1,19.2,21.85,West,270,4.0,6.0,66,0.00,,,0.00,meteohub,2013-11-30 11:24:00,
2013-11-30 05:29:00,29.1,19.2,21.85,SW,225,6.0,6.0,66,0.00,,,0.00,meteohub,2013-11-30 11:29:00,
2013-11-30 05:34:00,29.1,19.2,21.85,South,180,5.0,7.0,66,0.00,,,0.00,meteohub,2013-11-30 11:34:00,
2013-11-30 05:39:00,29.3,19.4,21.85,West,270,4.0,7.0,66,0.00,,,0.00,meteohub,2013-11-30 11:39:00,
2013-11-30 05:45:00,29.3,19.4,21.85,SW,225,8.0,8.0,66,0.00,,,0.00,meteohub,2013-11-30 11:45:00,
2013-11-30 05:50:00,29.3,19.4,21.86,West,270,5.0,8.0,66,0.00,,,0.00,meteohub,2013-11-30 11:50:00,
2013-11-30 05:55:00,29.3,19.4,21.86,West,270,5.0,8.0,66,0.00,,,0.00,meteohub,2013-11-30 11:55:00,
2013-11-30 06:00:00,29.3,19.8,21.86,West,270,8.0,8.0,67,0.00,,,0.00,meteohub,2013-11-30 12:00:00,
2013-11-30 06:05:00,29.3,19.8,21.86,West,270,8.0,8.0,67,0.00,,,0.00,meteohub,2013-11-30 12:05:00,
2013-11-30 06:10:00,29.3,19.8,21.86,NW,315,5.0,8.0,67,0.00,,,0.00,meteohub,2013-11-30 12:10:00,
2013-11-30 06:15:00,29.3,19.8,21.86,West,270,4.0,8.0,67,0.00,,,0.00,meteohub,2013-11-30 12:15:00,
2013-11-30 06:20:00,29.1,19.6,21.86,WSW,248,3.0,8.0,67,0.00,,,0.00,meteohub,2013-11-30 12:20:00,
2013-11-30 06:25:00,29.1,19.6,21.86,West,270,3.0,6.0,67,0.00,,,0.00,meteohub,2013-11-30 12:25:00,
2013-11-30 06:30:00,28.9,19.4,21.86,West,270,2.0,4.0,67,0.00,,,0.00,meteohub,2013-11-30 12:30:00,
2013-11-30 06:35:00,28.6,19.0,21.86,SW,225,3.0,4.0,67,0.00,,,0.00,meteohub,2013-11-30 12:35:00,
2013-11-30 06:40:00,28.4,19.2,21.86,West,270,4.0,4.0,68,0.00,,,0.00,meteohub,2013-11-30 12:40:00,
2013-11-30 06:45:00,28.2,17.6,21.87,SW,225,4.0,5.0,64,0.00,,,0.00,meteohub,2013-11-30 12:45:00,
2013-11-30 06:50:00,28.2,18.0,21.87,West,270,6.0,6.0,65,0.00,,,0.00,meteohub,2013-11-30 12:50:00,
2013-11-30 06:55:00,28.2,18.0,21.87,West,270,5.0,6.0,65,0.00,,,0.00,meteohub,2013-11-30 12:55:00,
2013-11-30 07:00:00,28.4,19.9,21.87,West,270,3.0,6.0,70,0.00,,,0.00,meteohub,2013-11-30 13:00:00,
2013-11-30 07:05:00,28.6,20.1,21.87,West,270,4.0,6.0,70,0.00,,,0.00,meteohub,2013-11-30 13:05:00,
2013-11-30 07:10:00,28.8,19.9,21.87,West,270,4.0,5.0,69,0.00,,,0.00,meteohub,2013-11-30 13:10:00,
2013-11-30 07:15:00,28.6,19.8,21.87,West,270,4.0,4.0,69,0.00,,,0.00,meteohub,2013-11-30 13:15:00,
2013-11-30 07:20:00,28.6,19.8,21.87,WSW,248,4.0,4.0,69,0.00,,,0.00,meteohub,2013-11-30 13:20:00,
2013-11-30 07:25:00,28.4,19.6,21.87,West,270,4.0,4.0,69,0.00,,,0.00,meteohub,2013-11-30 13:25:00,
2013-11-30 07:30:00,28.4,19.9,21.87,West,270,4.0,5.0,70,0.00,,,0.00,meteohub,2013-11-30 13:30:00,
2013-11-30 07:35:00,28.2,18.3,21.88,West,270,4.0,5.0,66,0.00,,,0.00,meteohub,2013-11-30 13:35:00,
2013-11-30 07:40:00,28.2,18.3,21.88,West,270,4.0,6.0,66,0.00,,,0.00,meteohub,2013-11-30 13:40:00,
2013-11-30 07:45:00,28.4,19.9,21.88,West,270,8.0,8.0,70,0.00,,,0.00,meteohub,2013-11-30 13:45:00,
2013-11-30 07:50:00,29.1,20.5,21.88,West,270,5.0,8.0,70,0.00,,,0.00,meteohub,2013-11-30 13:50:00,
2013-11-30 07:55:00,29.7,20.7,21.88,West,270,4.0,8.0,69,0.00,,,0.00,meteohub,2013-11-30 13:55:00,
2013-11-30 08:01:00,30.2,20.8,21.88,West,270,5.0,8.0,68,0.00,,,0.00,meteohub,2013-11-30 14:01:00,
2013-11-30 08:06:00,30.2,20.8,21.88,West,270,5.0,5.0,68,0.00,,,0.00,meteohub,2013-11-30 14:06:00,
2013-11-30 08:11:00,31.6,21.6,21.88,West,270,4.0,5.0,66,0.00,,,0.00,meteohub,2013-11-30 14:11:00,
2013-11-30 08:16:00,32.0,21.2,21.88,West,270,4.0,5.0,64,0.00,,,0.00,meteohub,2013-11-30 14:16:00,
2013-11-30 08:21:00,32.2,21.0,21.89,West,270,4.0,5.0,63,0.00,,,0.00,meteohub,2013-11-30 14:21:00,
2013-11-30 08:26:00,32.5,21.0,21.89,West,270,4.0,5.0,62,0.00,,,0.00,meteohub,2013-11-30 14:26:00,
2013-11-30 08:31:00,32.5,21.0,21.89,West,270,5.0,7.0,62,0.00,,,0.00,meteohub,2013-11-30 14:31:00,
2013-11-30 08:36:00,32.4,20.8,21.89,West,270,5.0,8.0,62,0.00,,,0.00,meteohub,2013-11-30 14:36:00,
2013-11-30 08:41:00,33.4,21.7,21.89,West,270,5.0,8.0,62,0.00,,,0.00,meteohub,2013-11-30 14:41:00,
2013-11-30 08:46:00,35.1,23.0,21.89,NW,315,11.0,11.0,61,0.00,,,0.00,meteohub,2013-11-30 14:46:00,
2013-11-30 08:51:00,35.6,22.3,21.89,NW,315,6.0,11.0,58,0.00,,,0.00,meteohub,2013-11-30 14:51:00,
2013-11-30 08:56:00,35.8,22.1,21.89,SSW,203,5.0,11.0,57,0.00,,,0.00,meteohub,2013-11-30 14:56:00,
2013-11-30 09:01:00,36.1,21.9,21.89,West,270,6.0,12.0,56,0.00,,,0.00,meteohub,2013-11-30 15:01:00,
2013-11-30 09:06:00,36.3,21.7,21.90,NW,315,9.0,15.0,55,0.00,,,0.00,meteohub,2013-11-30 15:06:00,
2013-11-30 09:11:00,36.9,22.3,21.89,West,270,6.0,15.0,55,0.00,,,0.00,meteohub,2013-11-30 15:11:00,
2013-11-30 09:16:00,37.0,22.5,21.89,NW,315,5.0,15.0,55,0.00,,,0.00,meteohub,2013-11-30 15:16:00,
2013-11-30 09:21:00,37.4,23.9,21.89,SW,225,6.0,11.0,58,0.00,,,0.00,meteohub,2013-11-30 15:21:00,
2013-11-30 09:26:00,37.4,23.5,21.90,NW,315,11.0,11.0,57,0.00,,,0.00,meteohub,2013-11-30 15:26:00,
2013-11-30 09:31:00,37.6,23.7,21.90,NW,315,11.0,11.0,57,0.00,,,0.00,meteohub,2013-11-30 15:31:00,
2013-11-30 09:36:00,37.8,23.9,21.90,NW,315,9.0,11.0,57,0.00,,,0.00,meteohub,2013-11-30 15:36:00,
2013-11-30 09:41:00,38.3,24.4,21.90,NW,315,7.0,11.0,57,0.00,,,0.00,meteohub,2013-11-30 15:41:00,
2013-11-30 09:46:00,38.8,24.4,21.90,NW,315,9.0,11.0,56,0.00,,,0.00,meteohub,2013-11-30 15:46:00,
2013-11-30 09:51:00,39.4,24.6,21.90,NW,315,6.0,11.0,55,0.00,,,0.00,meteohub,2013-11-30 15:51:00,
2013-11-30 09:56:00,39.6,24.3,21.90,North,0,6.0,12.0,54,0.00,,,0.00,meteohub,2013-11-30 15:56:00,
2013-11-30 10:01:00,39.7,24.4,21.90,ENE,68,8.0,12.0,54,0.00,,,0.00,meteohub,2013-11-30 16:01:00,
2013-11-30 10:07:00,39.7,24.4,21.90,ENE,68,8.0,12.0,54,0.00,,,0.00,meteohub,2013-11-30 16:07:00,
2013-11-30 10:12:00,40.5,24.6,21.90,NW,315,10.0,10.0,53,0.00,,,0.00,meteohub,2013-11-30 16:12:00,
2013-11-30 10:17:00,40.8,25.0,21.90,NW,315,11.0,11.0,53,0.00,,,0.00,meteohub,2013-11-30 16:17:00,
2013-11-30 10:22:00,41.0,24.3,21.90,West,270,14.0,14.0,51,0.00,,,0.00,meteohub,2013-11-30 16:22:00,
2013-11-30 10:27:00,41.2,24.4,21.91,NW,315,8.0,14.0,51,0.00,,,0.00,meteohub,2013-11-30 16:27:00,
2013-11-30 10:31:00,41.5,24.8,21.91,SW,225,4.0,14.0,51,0.00,,,0.00,meteohub,2013-11-30 16:31:00,
2013-11-30 10:36:00,42.3,25.0,21.91,North,0,11.0,14.0,50,0.00,,,0.00,meteohub,2013-11-30 16:36:00,
2013-11-30 10:42:00,43.0,25.2,21.92,North,0,10.0,14.0,49,0.00,,,0.00,meteohub,2013-11-30 16:42:00,
2013-11-30 10:47:00,42.8,24.4,21.92,West,270,14.0,14.0,48,0.00,,,0.00,meteohub,2013-11-30 16:47:00,
2013-11-30 10:52:00,42.6,24.8,21.93,NW,315,4.0,14.0,49,0.00,,,0.00,meteohub,2013-11-30 16:52:00,
2013-11-30 10:57:00,43.2,24.8,21.93,NW,315,8.0,14.0,48,0.00,,,0.00,meteohub,2013-11-30 16:57:00,
2013-11-30 11:02:00,43.9,25.0,21.93,West,270,6.0,14.0,47,0.00,,,0.00,meteohub,2013-11-30 17:02:00,
2013-11-30 11:06:00,43.7,24.3,21.93,West,270,12.0,12.0,46,0.00,,,0.00,meteohub,2013-11-30 17:06:00,
2013-11-30 11:12:00,43.3,23.9,21.94,NW,315,11.0,12.0,46,0.00,,,0.00,meteohub,2013-11-30 17:12:00,
2013-11-30 11:17:00,43.5,24.1,21.94,North,0,11.0,12.0,46,0.00,,,0.00,meteohub,2013-11-30 17:17:00,
2013-11-30 11:22:00,43.5,24.1,21.94,NW,315,10.0,12.0,46,0.00,,,0.00,meteohub,2013-11-30 17:22:00,
2013-11-30 11:27:00,43.2,23.7,21.94,NW,315,8.0,11.0,46,0.00,,,0.00,meteohub,2013-11-30 17:27:00,
2013-11-30 11:32:00,43.5,24.1,21.94,WNW,293,11.0,12.0,46,0.00,,,0.00,meteohub,2013-11-30 17:32:00,
2013-11-30 11:37:00,43.2,23.7,21.94,West,270,6.0,12.0,46,0.00,,,0.00,meteohub,2013-11-30 17:37:00,
2013-11-30 11:42:00,42.8,23.9,21.95,West,270,8.0,12.0,47,0.00,,,0.00,meteohub,2013-11-30 17:42:00,
2013-11-30 11:47:00,42.8,24.4,21.95,NW,315,8.0,11.0,48,0.00,,,0.00,meteohub,2013-11-30 17:47:00,
2013-11-30 11:52:00,43.2,24.8,21.95,NW,315,7.0,10.0,48,0.00,,,0.00,meteohub,2013-11-30 17:52:00,
2013-11-30 11:57:00,43.5,24.6,21.96,West,270,8.0,10.0,47,0.00,,,0.00,meteohub,2013-11-30 17:57:00,
2013-11-30 12:02:00,43.7,24.8,21.96,West,270,11.0,11.0,47,0.00,,,0.00,meteohub,2013-11-30 18:02:00,
2013-11-30 12:07:00,43.7,24.8,21.96,West,270,11.0,11.0,47,0.00,,,0.00,meteohub,2013-11-30 18:07:00,
2013-11-30 12:12:00,45.3,24.6,21.96,West,270,8.0,11.0,44,0.00,,,0.00,meteohub,2013-11-30 18:12:00,
2013-11-30 12:17:00,45.1,23.9,21.97,NW,315,8.0,15.0,43,0.00,,,0.00,meteohub,2013-11-30 18:17:00,
2013-11-30 12:22:00,45.0,23.7,21.97,West,270,8.0,15.0,43,0.00,,,0.00,meteohub,2013-11-30 18:22:00,
2013-11-30 12:27:00,46.0,24.8,21.97,NW,315,7.0,15.0,43,0.00,,,0.00,meteohub,2013-11-30 18:27:00,
2013-11-30 12:32:00,45.7,24.4,21.97,West,270,11.0,11.0,43,0.00,,,0.00,meteohub,2013-11-30 18:32:00,
2013-11-30 12:37:00,45.5,24.3,21.98,West,270,4.0,11.0,43,0.00,,,0.00,meteohub,2013-11-30 18:37:00,
2013-11-30 12:42:00,45.9,24.6,21.98,SW,225,8.0,11.0,43,0.00,,,0.00,meteohub,2013-11-30 18:42:00,
2013-11-30 12:47:00,45.9,24.6,21.98,West,270,7.0,11.0,43,0.00,,,0.00,meteohub,2013-11-30 18:47:00,
2013-11-30 12:52:00,46.6,25.9,21.98,NE,45,7.0,8.0,44,0.00,,,0.00,meteohub,2013-11-30 18:52:00,
2013-11-30 12:57:00,46.6,25.3,21.98,NNW,338,7.0,10.0,43,0.00,,,0.00,meteohub,2013-11-30 18:57:00,
2013-11-30 13:02:00,47.1,25.7,21.98,North,0,5.0,10.0,43,0.00,,,0.00,meteohub,2013-11-30 19:02:00,
2013-11-30 13:07:00,46.9,25.5,21.98,North,0,8.0,10.0,43,0.00,,,0.00,meteohub,2013-11-30 19:07:00,
2013-11-30 13:12:00,47.3,25.3,21.98,WNW,293,8.0,10.0,42,0.00,,,0.00,meteohub,2013-11-30 19:12:00,
2013-11-30 13:17:00,46.9,25.5,21.98,West,270,3.0,9.0,43,0.00,,,0.00,meteohub,2013-11-30 19:17:00,
2013-11-30 13:22:00,47.1,25.2,21.99,West,270,8.0,8.0,42,0.00,,,0.00,meteohub,2013-11-30 19:22:00,
2013-11-30 13:27:00,47.1,25.7,21.99,North,0,6.0,8.0,43,0.00,,,0.00,meteohub,2013-11-30 19:27:00,
2013-11-30 13:32:00,48.0,26.1,21.99,West,270,8.0,8.0,42,0.00,,,0.00,meteohub,2013-11-30 19:32:00,
2013-11-30 13:37:00,48.4,25.7,21.99,North,0,6.0,8.0,41,0.00,,,0.00,meteohub,2013-11-30 19:37:00,
2013-11-30 13:42:00,48.6,25.9,21.99,NW,315,8.0,8.0,41,0.00,,,0.00,meteohub,2013-11-30 19:42:00,
2013-11-30 13:47:00,48.4,25.7,21.99,NW,315,8.0,8.0,41,0.00,,,0.00,meteohub,2013-11-30 19:47:00,
2013-11-30 13:52:00,48.7,26.1,22.00,NW,315,11.0,11.0,41,0.00,,,0.00,meteohub,2013-11-30 19:52:00,
2013-11-30 13:57:00,46.8,24.8,22.00,NW,315,8.0,11.0,42,0.00,,,0.00,meteohub,2013-11-30 19:57:00,
2013-11-30 14:02:00,46.9,25.5,21.99,North,0,8.0,11.0,43,0.00,,,0.00,meteohub,2013-11-30 20:02:00,
2013-11-30 14:07:00,46.9,25.5,22.00,North,0,8.0,11.0,43,0.00,,,0.00,meteohub,2013-11-30 20:07:00,
2013-11-30 14:12:00,47.7,25.7,22.00,NW,315,8.0,11.0,42,0.00,,,0.00,meteohub,2013-11-30 20:12:00,
2013-11-30 14:17:00,46.4,25.2,22.00,NW,315,6.0,10.0,43,0.00,,,0.00,meteohub,2013-11-30 20:17:00,
2013-11-30 14:22:00,47.5,26.1,22.01,West,270,8.0,11.0,43,0.00,,,0.00,meteohub,2013-11-30 20:22:00,
2013-11-30 14:27:00,48.4,26.4,22.01,SW,225,4.0,11.0,42,0.00,,,0.00,meteohub,2013-11-30 20:27:00,
2013-11-30 14:32:00,48.4,25.7,22.01,West,270,9.0,11.0,41,0.00,,,0.00,meteohub,2013-11-30 20:32:00,
2013-11-30 14:36:00,48.0,26.1,22.01,South,180,5.0,12.0,42,0.00,,,0.00,meteohub,2013-11-30 20:36:00,
2013-11-30 14:42:00,48.6,25.9,22.01,North,0,4.0,12.0,41,0.00,,,0.00,meteohub,2013-11-30 20:42:00,
2013-11-30 14:47:00,48.4,25.7,22.01,North,0,8.0,12.0,41,0.00,,,0.00,meteohub,2013-11-30 20:47:00,
2013-11-30 14:52:00,48.9,26.2,22.01,West,270,11.0,11.0,41,0.00,,,0.00,meteohub,2013-11-30 20:52:00,
2013-11-30 14:57:00,48.2,25.5,22.00,West,270,6.0,11.0,41,0.00,,,0.00,meteohub,2013-11-30 20:57:00,
2013-11-30 15:01:00,47.5,26.1,22.01,West,270,7.0,11.0,43,0.00,,,0.00,meteohub,2013-11-30 21:01:00,
2013-11-30 15:07:00,46.8,25.5,22.00,NW,315,7.0,11.0,43,0.00,,,0.00,meteohub,2013-11-30 21:07:00,
2013-11-30 15:12:00,46.6,25.9,22.00,NW,315,6.0,9.0,44,0.00,,,0.00,meteohub,2013-11-30 21:12:00,
2013-11-30 15:17:00,46.0,25.3,22.00,NW,315,8.0,8.0,44,0.00,,,0.00,meteohub,2013-11-30 21:17:00,
2013-11-30 15:22:00,45.7,25.0,22.00,West,270,5.0,8.0,44,0.00,,,0.00,meteohub,2013-11-30 21:22:00,
2013-11-30 15:26:00,45.5,25.3,22.00,NW,315,4.0,8.0,45,0.00,,,0.00,meteohub,2013-11-30 21:26:00,
2013-11-30 15:32:00,45.3,25.7,22.00,West,270,5.0,8.0,46,0.00,,,0.00,meteohub,2013-11-30 21:32:00,
2013-11-30 15:37:00,45.5,25.9,22.00,NW,315,4.0,6.0,46,0.00,,,0.00,meteohub,2013-11-30 21:37:00,
2013-11-30 15:42:00,45.3,25.7,22.00,NW,315,4.0,6.0,46,0.00,,,0.00,meteohub,2013-11-30 21:42:00,
2013-11-30 15:47:00,45.0,25.3,21.99,NW,315,4.0,5.0,46,0.00,,,0.00,meteohub,2013-11-30 21:47:00,
2013-11-30 15:52:00,45.0,25.9,22.00,NW,315,3.0,4.0,47,0.00,,,0.00,meteohub,2013-11-30 21:52:00,
2013-11-30 15:57:00,44.6,25.7,21.99,SW,225,5.0,5.0,47,0.00,,,0.00,meteohub,2013-11-30 21:57:00,
2013-11-30 16:02:00,44.4,26.4,21.99,NW,315,4.0,7.0,49,0.00,,,0.00,meteohub,2013-11-30 22:02:00,
2013-11-30 16:07:00,44.4,26.4,21.99,NW,315,4.0,7.0,49,0.00,,,0.00,meteohub,2013-11-30 22:07:00,
2013-11-30 16:12:00,43.5,25.7,21.99,West,270,2.0,7.0,49,0.00,,,0.00,meteohub,2013-11-30 22:12:00,
2013-11-30 16:17:00,43.2,25.3,21.99,West,270,2.0,4.0,49,0.00,,,0.00,meteohub,2013-11-30 22:17:00,
2013-11-30 16:22:00,42.8,25.5,21.98,West,270,2.0,4.0,50,0.00,,,0.00,meteohub,2013-11-30 22:22:00,
2013-11-30 16:27:00,42.3,25.3,21.99,NW,315,1.0,3.0,51,0.00,,,0.00,meteohub,2013-11-30 22:27:00,
2013-11-30 16:32:00,41.9,25.2,21.99,West,270,1.0,3.0,51,0.00,,,0.00,meteohub,2013-11-30 22:32:00,
2013-11-30 16:36:00,41.5,25.2,21.99,West,270,2.0,3.0,52,0.00,,,0.00,meteohub,2013-11-30 22:36:00,
2013-11-30 16:42:00,41.2,24.8,21.98,West,270,2.0,2.0,52,0.00,,,0.00,meteohub,2013-11-30 22:42:00,
2013-11-30 16:47:00,40.8,25.5,21.98,West,270,2.0,2.0,54,0.00,,,0.00,meteohub,2013-11-30 22:47:00,
2013-11-30 16:52:00,40.6,25.3,21.98,West,270,2.0,2.0,54,0.00,,,0.00,meteohub,2013-11-30 22:52:00,
2013-11-30 16:57:00,40.3,25.0,21.98,NW,315,2.0,2.0,54,0.00,,,0.00,meteohub,2013-11-30 22:57:00,
2013-11-30 17:02:00,40.1,25.2,21.98,West,270,2.0,2.0,55,0.00,,,0.00,meteohub,2013-11-30 23:02:00,
2013-11-30 17:07:00,39.9,25.0,21.97,West,270,0.0,2.0,55,0.00,,,0.00,meteohub,2013-11-30 23:07:00,
2013-11-30 17:12:00,39.6,24.8,21.97,West,270,0.0,2.0,55,0.00,,,0.00,meteohub,2013-11-30 23:12:00,
2013-11-30 17:17:00,39.2,24.8,21.97,West,270,1.0,2.0,56,0.00,,,0.00,meteohub,2013-11-30 23:17:00,
2013-11-30 17:22:00,38.7,24.8,21.97,West,270,1.0,2.0,57,0.00,,,0.00,meteohub,2013-11-30 23:22:00,
2013-11-30 17:27:00,38.5,24.6,21.97,West,270,0.0,2.0,57,0.00,,,0.00,meteohub,2013-11-30 23:27:00,
2013-11-30 17:32:00,38.1,24.6,21.97,West,270,0.0,2.0,58,0.00,,,0.00,meteohub,2013-11-30 23:32:00,
2013-11-30 17:37:00,37.9,24.4,21.97,West,270,0.0,2.0,58,0.00,,,0.00,meteohub,2013-11-30 23:37:00,
2013-11-30 17:42:00,37.6,24.6,21.97,West,270,2.0,2.0,59,0.00,,,0.00,meteohub,2013-11-30 23:42:00,
2013-11-30 17:47:00,37.6,25.0,21.97,West,270,0.0,2.0,60,0.00,,,0.00,meteohub,2013-11-30 23:47:00,
2013-11-30 17:52:00,37.4,24.8,21.97,North,0,1.0,2.0,60,0.00,,,0.00,meteohub,2013-11-30 23:52:00,
2013-11-30 17:57:00,37.0,23.2,21.97,NW,315,1.0,2.0,57,0.00,,,0.00,meteohub,2013-11-30 23:57:00,
2013-11-30 18:02:00,37.0,23.2,21.97,NW,315,0.0,2.0,57,0.00,,,0.00,meteohub,2013-12-01 00:02:00,
2013-11-30 18:07:00,37.0,23.2,21.96,NW,315,0.0,1.0,57,0.00,,,0.00,meteohub,2013-12-01 00:07:00,
2013-11-30 18:12:00,36.7,23.4,21.96,West,270,1.0,1.0,58,0.00,,,0.00,meteohub,2013-12-01 00:12:00,
2013-11-30 18:17:00,36.9,23.5,21.96,West,270,1.0,2.0,58,0.00,,,0.00,meteohub,2013-12-01 00:17:00,
2013-11-30 18:22:00,36.7,23.4,21.96,East,90,3.0,3.0,58,0.00,,,0.00,meteohub,2013-12-01 00:22:00,
2013-11-30 18:27:00,36.3,23.4,21.96,SE,135,1.0,4.0,59,0.00,,,0.00,meteohub,2013-12-01 00:27:00,
2013-11-30 18:32:00,36.0,23.0,21.96,NW,315,0.0,4.0,59,0.00,,,0.00,meteohub,2013-12-01 00:32:00,
2013-11-30 18:37:00,35.6,22.6,21.96,NW,315,0.0,4.0,59,0.00,,,0.00,meteohub,2013-12-01 00:37:00,
2013-11-30 18:42:00,35.6,22.6,21.96,NW,315,0.0,3.0,59,0.00,,,0.00,meteohub,2013-12-01 00:42:00,
2013-11-30 18:47:00,35.4,23.0,21.96,North,0,0.0,0.0,60,0.00,,,0.00,meteohub,2013-12-01 00:47:00,
2013-11-30 18:52:00,35.2,23.2,21.96,North,0,0.0,0.0,61,0.00,,,0.00,meteohub,2013-12-01 00:52:00,
2013-11-30 18:57:00,34.9,22.8,21.96,North,0,0.0,0.0,61,0.00,,,0.00,meteohub,2013-12-01 00:57:00,
2013-11-30 19:02:00,34.5,22.5,21.95,NW,315,0.0,0.0,61,0.00,,,0.00,meteohub,2013-12-01 01:02:00,
2013-11-30 19:07:00,34.3,22.6,21.95,North,0,0.0,0.0,62,0.00,,,0.00,meteohub,2013-12-01 01:07:00,
2013-11-30 19:12:00,34.2,22.8,21.95,North,0,0.0,0.0,63,0.00,,,0.00,meteohub,2013-12-01 01:12:00,
2013-11-30 19:17:00,33.8,23.0,21.94,NE,45,2.0,0.0,64,0.00,,,0.00,meteohub,2013-12-01 01:17:00,
2013-11-30 19:22:00,34.7,24.1,21.94,East,90,7.0,7.0,65,0.00,,,0.00,meteohub,2013-12-01 01:22:00,
2013-11-30 19:27:00,35.8,24.4,21.94,East,90,6.0,7.0,63,0.00,,,0.00,meteohub,2013-12-01 01:27:00,
2013-11-30 19:32:00,36.1,24.1,21.94,East,90,8.0,8.0,61,0.00,,,0.00,meteohub,2013-12-01 01:32:00,
2013-11-30 19:37:00,36.3,23.7,21.94,East,90,5.0,8.0,60,0.00,,,0.00,meteohub,2013-12-01 01:37:00,
2013-11-30 19:41:00,36.1,23.2,21.95,East,90,4.0,8.0,59,0.00,,,0.00,meteohub,2013-12-01 01:41:00,
2013-11-30 19:43:00,36.1,23.2,21.94,East,90,5.0,8.0,59,0.00,,,0.00,meteohub,2013-12-01 01:43:00,
2013-11-30 19:48:00,36.0,23.0,21.94,East,90,3.0,8.0,59,0.00,,,0.00,meteohub,2013-12-01 01:48:00,
2013-11-30 19:53:00,35.8,22.8,21.94,NE,45,4.0,8.0,59,0.00,,,0.00,meteohub,2013-12-01 01:53:00,
2013-11-30 19:58:00,35.6,22.6,21.94,NE,45,3.0,8.0,59,0.00,,,0.00,meteohub,2013-12-01 01:58:00,
2013-11-30 20:03:00,35.6,22.6,21.94,NE,45,2.0,5.0,59,0.00,,,0.00,meteohub,2013-12-01 02:03:00,
2013-11-30 20:08:00,35.2,23.2,21.94,North,0,2.0,5.0,61,0.00,,,0.00,meteohub,2013-12-01 02:08:00,
2013-11-30 20:13:00,35.1,23.0,21.94,North,0,0.0,3.0,61,0.00,,,0.00,meteohub,2013-12-01 02:13:00,
2013-11-30 20:18:00,34.7,22.6,21.94,North,0,0.0,2.0,61,0.00,,,0.00,meteohub,2013-12-01 02:18:00,
2013-11-30 20:23:00,34.5,22.5,21.94,West,270,0.0,2.0,61,0.00,,,0.00,meteohub,2013-12-01 02:23:00,
2013-11-30 20:28:00,34.3,22.3,21.94,West,270,0.0,0.0,61,0.00,,,0.00,meteohub,2013-12-01 02:28:00,
2013-11-30 20:33:00,34.2,22.1,21.94,West,270,2.0,0.0,61,0.00,,,0.00,meteohub,2013-12-01 02:33:00,
2013-11-30 20:38:00,34.0,22.3,21.94,SW,225,0.0,2.0,62,0.00,,,0.00,meteohub,2013-12-01 02:38:00,
2013-11-30 20:43:00,33.8,22.1,21.94,SW,225,0.0,2.0,62,0.00,,,0.00,meteohub,2013-12-01 02:43:00,
2013-11-30 20:48:00,33.6,22.5,21.94,NW,315,0.0,2.0,63,0.00,,,0.00,meteohub,2013-12-01 02:48:00,
2013-11-30 20:53:00,33.4,22.3,21.94,West,270,0.0,2.0,63,0.00,,,0.00,meteohub,2013-12-01 02:53:00,
2013-11-30 20:58:00,33.3,22.5,21.94,West,270,0.0,0.0,64,0.00,,,0.00,meteohub,2013-12-01 02:58:00,
2013-11-30 21:03:00,33.1,22.6,21.94,West,270,0.0,0.0,65,0.00,,,0.00,meteohub,2013-12-01 03:03:00,
2013-11-30 21:08:00,32.9,22.5,21.94,West,270,0.0,0.0,65,0.00,,,0.00,meteohub,2013-12-01 03:08:00,
2013-11-30 21:13:00,32.9,22.5,21.94,West,270,0.0,0.0,65,0.00,,,0.00,meteohub,2013-12-01 03:13:00,
2013-11-30 21:18:00,32.9,22.5,21.94,West,270,0.0,0.0,65,0.00,,,0.00,meteohub,2013-12-01 03:18:00,
2013-11-30 21:23:00,32.9,22.8,21.94,North,0,0.0,0.0,66,0.00,,,0.00,meteohub,2013-12-01 03:23:00,
2013-11-30 21:28:00,32.9,22.8,21.94,North,0,0.0,0.0,66,0.00,,,0.00,meteohub,2013-12-01 03:28:00,
2013-11-30 21:33:00,32.9,22.8,21.94,North,0,0.0,0.0,66,0.00,,,0.00,meteohub,2013-12-01 03:33:00,
2013-11-30 21:38:00,32.7,23.0,21.94,West,270,2.0,0.0,67,0.00,,,0.00,meteohub,2013-12-01 03:38:00,
2013-11-30 21:43:00,32.9,23.2,21.94,West,270,0.0,2.0,67,0.00,,,0.00,meteohub,2013-12-01 03:43:00,
2013-11-30 21:48:00,32.9,23.5,21.94,NW,315,1.0,2.0,68,0.00,,,0.00,meteohub,2013-12-01 03:48:00,
2013-11-30 21:53:00,33.1,23.7,21.94,NW,315,1.0,2.0,68,0.00,,,0.00,meteohub,2013-12-01 03:53:00,
2013-11-30 21:58:00,33.3,23.9,21.94,NW,315,0.0,2.0,68,0.00,,,0.00,meteohub,2013-12-01 03:58:00,
2013-11-30 22:04:00,33.1,23.7,21.94,NW,315,0.0,2.0,68,0.00,,,0.00,meteohub,2013-12-01 04:04:00,
2013-11-30 22:09:00,32.9,23.5,21.94,NW,315,0.0,1.0,68,0.00,,,0.00,meteohub,2013-12-01 04:09:00,
2013-11-30 22:14:00,32.7,23.4,21.94,NW,315,0.0,0.0,68,0.00,,,0.00,meteohub,2013-12-01 04:14:00,
2013-11-30 22:19:00,32.7,23.4,21.93,NW,315,0.0,0.0,68,0.00,,,0.00,meteohub,2013-12-01 04:19:00,
2013-11-30 22:24:00,32.7,23.4,21.94,NW,315,0.0,0.0,68,0.00,,,0.00,meteohub,2013-12-01 04:24:00,
2013-11-30 22:29:00,32.7,23.4,21.94,NW,315,0.0,0.0,68,0.00,,,0.00,meteohub,2013-12-01 04:29:00,
2013-11-30 22:34:00,32.7,23.4,21.94,NW,315,0.0,0.0,68,0.00,,,0.00,meteohub,2013-12-01 04:34:00,
2013-11-30 22:39:00,32.7,23.4,21.93,NW,315,1.0,0.0,68,0.00,,,0.00,meteohub,2013-12-01 04:39:00,
2013-11-30 22:44:00,32.9,23.5,21.93,NW,315,0.0,0.0,68,0.00,,,0.00,meteohub,2013-12-01 04:44:00,
2013-11-30 22:49:00,32.9,23.5,21.93,NW,315,0.0,1.0,68,0.00,,,0.00,meteohub,2013-12-01 04:49:00,
2013-11-30 22:54:00,32.9,23.5,21.93,NW,315,1.0,1.0,68,0.00,,,0.00,meteohub,2013-12-01 04:54:00,
2013-11-30 22:59:00,33.1,23.7,21.93,NW,315,0.0,2.0,68,0.00,,,0.00,meteohub,2013-12-01 04:59:00,
2013-11-30 23:01:00,33.1,23.7,21.93,NW,315,0.0,2.0,68,0.00,,,0.00,meteohub,2013-12-01 05:01:00,
2013-11-30 23:02:00,33.1,23.7,21.93,NW,315,0.0,2.0,68,0.00,,,0.00,meteohub,2013-12-01 05:02:00,
2013-11-30 23:07:00,33.3,23.9,21.93,NW,315,0.0,2.0,68,0.00,,,0.00,meteohub,2013-12-01 05:07:00,
2013-11-30 23:12:00,33.3,23.9,21.93,NW,315,0.0,1.0,68,0.00,,,0.00,meteohub,2013-12-01 05:12:00,
2013-11-30 23:17:00,33.3,23.9,21.93,NW,315,0.0,1.0,68,0.00,,,0.00,meteohub,2013-12-01 05:17:00,
2013-11-30 23:22:00,33.3,23.9,21.93,NW,315,0.0,1.0,68,0.00,,,0.00,meteohub,2013-12-01 05:22:00,
2013-11-30 23:27:00,33.3,23.9,21.93,NW,315,2.0,2.0,68,0.00,,,0.00,meteohub,2013-12-01 05:27:00,
2013-11-30 23:32:00,33.4,24.1,21.93,North,0,1.0,2.0,68,0.00,,,0.00,meteohub,2013-12-01 05:32:00,
2013-11-30 23:37:00,33.3,23.9,21.93,North,0,1.0,2.0,68,0.00,,,0.00,meteohub,2013-12-01 05:37:00,
2013-11-30 23:42:00,33.4,24.1,21.93,East,90,1.0,3.0,68,0.00,,,0.00,meteohub,2013-12-01 05:42:00,
2013-11-30 23:47:00,33.4,24.4,21.93,NE,45,2.0,3.0,69,0.00,,,0.00,meteohub,2013-12-01 05:47:00,
2013-11-30 23:52:00,33.6,24.3,21.93,North,0,2.0,3.0,68,0.00,,,0.00,meteohub,2013-12-01 05:52:00,
2013-11-30 23:57:00,33.8,24.1,21.93,NE,45,2.0,2.0,67,0.00,,,0.00,meteohub,2013-12-01 05:57:00,